Location: Westminster
(33.3626°N, 96.4619°W)
Time: 10:41:20
(UTC+00:00)

OAO 3 Rocket - Pass Details

Date: 03 December 2021
Orbit: 629 x 682 km, 35.0° (Epoch: 24 January)

Event Time Altitude Azimuth Distance (km) Brightness Sun altitude
Exits shadow 12:06:20 18° 263° (W) 1,634 4.7 -13.8°
Maximum altitude 12:09:24 36° 207° (SSW) 1,062 4.2 -13.2°
Drops below altitude 10° 12:13:55 10° 140° (SE) 2,100 6.7 -12.3°
Sets 12:16:26 0° 132° (SE) 3,007 7.9 -11.8°
